Location: Gleizolles
(44.4833°N, 6.7667°E)
Time: 15:18:49
(UTC+00:00)

Tiros 1 - Pass Details

Date: 01 July 2024
Orbit: 624 x 656 km, 48.4° (Epoch: 13 July)

Event Time Altitude Azimuth Distance (km) Brightness Sun altitude
Rises 23:15:51 0° 284° (WNW) 2,903 10.8 -22.3°
Reaches altitude 10° 23:18:13 10° 289° (WNW) 1,996 9.9 -22.4°
Maximum altitude 23:22:43 54° 7° (N) 762 7.8 -22.4°
Drops below altitude 10° 23:27:14 10° 85° (E) 2,003 9.7 -22.5°
Sets 23:29:36 0° 90° (E) 2,914 10.5 -22.5°
